Date String (YYYY-MM-DD hh:mm:ss) UTC,Instrument flags,absolute air pressure of the measurement (hPa),sample flow rate (lpm),inlet stack bypass flow (lpm),air temperature of the measurement (°C),ambient temperature measured by the external sensor (°C),aerosol sample conditioner tube jacket temperature (°C),OPC LED temperature (°C),internal box temperature (°C),relative humidity of the measurement (%),span deviation,mass concentration of particles derived from Lorenz-Mie calculation of OPC scattering (μg/m³),mass concentration of particles derived from Lorenz-Mie calculation of OPC scattering (μg/m³),mass concentration of particles derived from Lorenz-Mie calculation of OPC scattering (μg/m³)
DateTimeUTC,F1_M11,P_M11,Q1_M11,Q2_M11,T1_M11,T2_M11,T3_M11,T4_M11,T5_M11,U1_M11,ZSPAN_M11,X0_M11,X2_M11,X1_M11
2023-06-05 15:00:00,SystemResetWarning,0835.6,5.00,000.00,030.0,026.0,000.0,038.4,031.3,31.4,0002.0,0012.26,0007.63,0007.15
2023-06-05 15:01:00,SystemResetWarning,0835.6,5.00,000.00,029.9,026.3,000.0,038.4,031.3,31.5,0001.9,0012.34,0007.70,0007.25
2023-06-05 15:02:00,SystemResetWarning,0835.6,5.00,000.00,029.9,026.7,000.0,038.4,031.3,31.5,0001.7,0012.44,0007.86,0007.41
2023-06-05 15:03:00,SystemResetWarning,0835.7,5.00,000.00,029.9,027.0,000.0,038.3,031.3,30.6,0001.7,0012.17,0008.06,0007.61
2023-06-05 15:04:00,SystemResetWarning,0835.6,4.98,000.00,029.9,027.3,000.0,038.3,031.4,30.8,0001.8,0012.51,0008.31,0007.86
2023-06-05 15:05:00,SystemResetWarning,0835.6,5.00,000.00,029.9,027.5,000.0,038.3,031.4,31.6,0001.9,0012.82,0008.57,0008.09
2023-06-05 15:06:00,SystemResetWarning,0835.6,5.01,000.00,029.9,027.7,000.0,038.3,031.4,31.7,0002.0,0012.97,0008.72,0008.25
2023-06-05 15:07:00,SystemResetWarning,0835.7,5.00,000.00,029.9,027.9,000.0,038.3,031.4,31.6,0002.0,0013.22,0008.81,0008.36
2023-06-05 15:08:00,SystemResetWarning,0835.6,5.00,000.00,029.9,028.0,000.0,038.3,031.4,30.5,0002.0,0013.33,0008.80,0008.35
2023-06-05 15:09:00,SystemResetWarning,0835.6,4.99,000.00,029.9,028.1,000.0,038.3,031.4,29.9,0001.9,0013.24,0008.67,0008.22
2023-06-05 15:10:00,SystemResetWarning,0835.6,4.99,000.00,029.9,028.2,000.0,038.3,031.5,30.7,0001.6,0013.13,0008.54,0008.09
2023-06-05 15:11:00,SystemResetWarning,0835.7,5.01,000.00,029.9,028.2,000.0,038.3,031.5,30.2,0001.6,0012.90,0008.40,0007.96
2023-06-05 15:12:00,SystemResetWarning,0835.6,5.01,000.00,029.9,028.3,000.0,038.3,031.5,30.3,0001.6,0012.70,0008.27,0007.84
2023-06-05 15:13:00,SystemResetWarning,0835.6,5.01,000.00,029.9,028.3,000.0,038.3,031.5,30.4,0001.6,0012.31,0008.03,0007.61
2023-06-05 15:14:00,SystemResetWarning,0835.6,4.99,000.00,030.0,028.4,000.0,038.3,031.5,30.8,0001.6,0011.99,0007.78,0007.35
2023-06-05 15:15:00,SystemResetWarning,0835.6,5.00,000.00,030.0,028.4,000.0,038.3,031.6,31.3,0001.4,0012.51,0007.52,0007.08
2023-06-05 15:16:00,SystemResetWarning,0835.6,5.00,000.00,030.0,028.5,000.0,038.3,031.6,31.2,0001.3,0012.17,0007.28,0006.84
2023-06-05 15:17:00,SystemResetWarning,0835.6,5.00,000.00,030.0,028.5,000.0,038.3,031.6,31.4,0001.1,0011.93,0007.11,0006.67
2023-06-05 15:18:00,SystemResetWarning,0835.6,5.00,000.00,030.0,028.6,000.0,038.3,031.6,31.3,0001.3,0011.56,0006.94,0006.50
2023-06-05 15:19:00,SystemResetWarning,0835.7,5.00,000.00,030.0,028.6,000.0,038.3,031.7,30.7,0001.4,0011.24,0006.86,0006.43
2023-06-05 15:20:00,SystemResetWarning,0835.6,5.00,000.00,030.1,028.6,000.0,038.4,031.7,30.2,0001.2,0011.23,0006.90,0006.44
2023-06-05 15:21:00,SystemResetWarning,0835.6,5.00,000.00,030.1,028.6,000.0,038.4,031.7,30.7,0001.4,0011.15,0006.89,0006.43
2023-06-05 15:22:00,SystemResetWarning,0835.7,5.00,000.00,030.1,028.6,000.0,038.4,031.7,31.2,0001.5,0011.14,0006.90,0006.44
2023-06-05 15:23:00,SystemResetWarning,0835.6,5.00,000.00,030.1,028.6,000.0,038.4,031.8,30.7,0001.7,0011.30,0006.94,0006.48
2023-06-05 15:24:00,SystemResetWarning,0835.6,4.98,000.00,030.1,028.3,000.0,038.4,031.7,31.3,0001.7,0011.52,0007.02,0006.55
2023-06-05 15:25:00,SystemResetWarning,0835.6,5.00,000.00,030.1,026.7,000.0,038.3,031.5,30.9,0001.7,0011.52,0007.05,0006.61
2023-06-05 15:26:00,SystemResetWarning,0835.6,5.00,000.00,030.0,025.6,000.0,038.2,031.3,30.8,0001.7,0010.77,0007.10,0006.67
2023-06-05 15:27:00,SystemResetWarning,0835.5,5.01,000.00,029.9,025.5,000.0,038.2,031.2,30.8,0001.9,0010.82,0007.18,0006.77
2023-06-05 15:28:00,SystemResetWarning,0835.5,5.01,000.00,029.8,025.7,000.0,038.2,031.2,31.2,0001.8,0010.93,0007.28,0006.87
2023-06-05 15:29:00,SystemResetWarning,0835.5,5.00,000.00,029.7,026.1,000.0,038.1,031.1,31.4,0001.4,0011.03,0007.38,0006.98
2023-06-05 15:30:00,SystemResetWarning,0835.6,5.00,000.00,029.7,026.5,000.0,038.1,031.2,31.2,0001.3,0011.19,0007.50,0007.09
2023-06-05 15:31:00,SystemResetWarning,0835.5,5.00,000.00,029.7,026.8,000.0,038.1,031.2,31.1,0001.4,0011.32,0007.62,0007.21
2023-06-05 15:32:00,SystemResetWarning,0835.5,5.00,000.00,029.7,027.1,000.0,038.1,031.2,31.5,0001.4,0011.44,0007.74,0007.34
2023-06-05 15:33:00,SystemResetWarning,0835.5,4.99,000.00,029.7,027.3,000.0,038.1,031.2,30.9,0001.5,0011.66,0007.88,0007.46
2023-06-05 15:34:00,SystemResetWarning,0835.5,4.99,000.00,029.7,027.5,000.0,038.1,031.2,31.0,0001.5,0011.70,0007.98,0007.53
2023-06-05 15:35:00,SystemResetWarning,0835.5,5.00,000.00,029.7,027.7,000.0,038.1,031.2,30.4,0001.4,0011.65,0008.06,0007.61
2023-06-05 15:36:00,SystemResetWarning,0835.5,5.00,000.00,029.7,027.8,000.0,038.1,031.3,30.8,0001.4,0011.66,0008.12,0007.69
2023-06-05 15:37:00,SystemResetWarning,0835.5,5.00,000.00,029.7,027.9,000.0,038.1,031.3,31.0,0001.3,0011.67,0008.16,0007.73
2023-06-05 15:38:00,SystemResetWarning,0835.5,5.00,000.00,029.7,028.0,000.0,038.1,031.3,31.0,0001.3,0011.78,0008.20,0007.73
2023-06-05 15:39:00,SystemResetWarning,0835.5,5.00,000.00,029.7,028.1,000.0,038.1,031.3,30.6,0001.1,0011.84,0008.19,0007.72
2023-06-05 15:40:00,SystemResetWarning,0835.5,5.00,000.00,029.7,028.2,000.0,038.1,031.4,31.0,0001.1,0011.98,0008.19,0007.70
2023-06-05 15:41:00,SystemResetWarning,0835.5,4.99,000.00,029.8,028.2,000.0,038.1,031.4,30.7,0001.4,0011.91,0008.15,0007.67
2023-06-05 15:42:00,SystemResetWarning,0835.5,4.99,000.00,029.8,028.3,000.0,038.1,031.4,30.7,0001.6,0011.81,0008.10,0007.64
2023-06-05 15:43:00,SystemResetWarning,0835.6,4.99,000.00,029.8,028.3,000.0,038.1,031.4,30.9,0001.5,0011.86,0008.07,0007.60
2023-06-05 15:44:00,SystemResetWarning,0835.5,5.01,000.00,029.8,028.4,000.0,038.1,031.4,31.7,0001.4,0011.81,0008.04,0007.58
2023-06-05 15:45:00,SystemResetWarning,0835.5,5.01,000.00,029.8,028.4,000.0,038.1,031.5,31.7,0001.3,0011.71,0007.98,0007.54
2023-06-05 15:46:00,SystemResetWarning,0835.5,5.00,000.00,029.9,028.4,000.0,038.1,031.5,31.6,0001.2,0011.64,0007.91,0007.47
2023-06-05 15:47:00,SystemResetWarning,0835.5,5.00,000.00,029.9,028.5,000.0,038.2,031.5,31.2,0001.2,0011.62,0007.87,0007.42
2023-06-05 15:48:00,SystemResetWarning,0835.5,5.00,000.00,029.9,028.5,000.0,038.2,031.5,30.8,0001.2,0011.60,0007.86,0007.43
2023-06-05 15:49:00,SystemResetWarning,0835.5,5.00,000.00,029.9,028.5,000.0,038.2,031.6,30.6,0001.0,0011.54,0007.84,0007.45
2023-06-05 15:50:00,SystemResetWarning,0835.5,5.00,000.00,029.9,028.5,000.0,038.2,031.6,30.7,0000.9,0011.60,0007.87,0007.45
2023-06-05 15:51:00,SystemResetWarning,0835.5,5.00,000.00,029.9,028.5,000.0,038.2,031.6,30.8,0000.9,0011.42,0007.83,0007.46
2023-06-05 15:52:00,SystemResetWarning,0835.5,5.00,000.00,030.0,028.6,000.0,038.2,031.6,30.6,0000.7,0011.44,0007.86,0007.48
2023-06-05 15:53:00,SystemResetWarning,0835.5,5.00,000.00,030.0,028.6,000.0,038.2,031.6,30.8,0000.6,0011.42,0007.86,0007.48
2023-06-05 15:54:00,SystemResetWarning,0835.5,4.99,000.00,030.0,027.9,000.0,038.2,031.6,30.4,0000.7,0011.37,0007.85,0007.48
2023-06-05 15:55:00,SystemResetWarning,0835.5,5.01,000.00,030.0,026.4,000.0,038.1,031.4,30.6,0000.6,0011.28,0007.82,0007.46
2023-06-05 15:56:00,SystemResetWarning,0835.5,5.01,000.00,029.9,025.9,000.0,038.1,031.2,29.5,0000.7,0011.19,0007.74,0007.40
2023-06-05 15:57:00,SystemResetWarning,0835.4,5.01,000.00,029.8,026.0,000.0,038.1,031.1,29.4,0000.7,0010.95,0007.59,0007.28
2023-06-05 15:58:00,SystemResetWarning,0835.5,5.00,000.00,029.7,026.3,000.0,038.1,031.1,29.9,0000.9,0010.94,0007.53,0007.18
2023-06-05 15:59:00,SystemResetWarning,0835.4,5.00,000.00,029.7,026.6,000.0,038.1,031.1,30.8,0000.9,0011.71,0007.55,0007.16
